Regional Weather Roundup
Issued by NWS Cleveland, OH

Home | Current Version | Previous Version | Text Only | Print | Product List | Glossary Off
Versions: 1 2 3 4 5 6 7 8 9 10 11 12 13 14 15 16 17 18 19 20 21 22 23 24 25 26 27 28 29 30 31 32 33 34 35 36 37 38 39 40 41 42 43 44 45 46 47 48 49 50

000
ASUS41 KCLE 222010
RWRCLE
OHIO REGIONAL WEATHER ROUNDUP
NATIONAL WEATHER SERVICE CLEVELAND, OH
300 PM EST MON DEC 22 2014

NOTE: "FAIR" INDICATES FEW OR NO CLOUDS BELOW 12,000 FEET WITH NO
SIGNIFICANT WEATHER AND/OR OBSTRUCTIONS TO VISIBILITY.

OHZ001>008-015>018-024>027-034-035-043-044-222100-
   NORTHWEST OHIO

CITY           SKY/WX    TMP DP  RH WIND       PRES   REMARKS
DEFIANCE       CLOUDY    38  31  76 E9        29.90F HAZE
FINDLAY        PTSUNNY   41  33  73 E9        29.89F
TOLEDO EXPRESS PTSUNNY   39  29  67 VRB3      29.92S
TOLEDO EXEC    CLOUDY    39  30  70 NE6       29.94S
LIMA           CLOUDY    43  33  68 E8        29.87F
$$

OHZ009>014-019>023-028>033-038-089-222100-
   NORTHEAST OHIO

CITY           SKY/WX    TMP DP  RH WIND       PRES   REMARKS
CLE-HOPKINS    PTSUNNY   42  31  64 SE9       30.00S
CLE-LAKEFRONT  PTSUNNY   44  31  60 SE5       29.98S
CUY CO. ARPT   PTSUNNY   45  34  65 SE12      29.98F
LORAIN-ELYRIA  MOSUNNY   41  32  70 SE8       29.96F
ASHTABULA      MOSUNNY   41  29  62 SE9       30.01F
AKRON-CANTON   PTSUNNY   44  32  62 E6        29.96F
WOOSTER        CLOUDY    41  33  73 SE6       29.96F
MANSFIELD      PTSUNNY   43  33  68 E12       29.92F
YOUNGSTOWN     PTSUNNY   40  29  64 SE8       29.99F
$$

OHZ042-051>053-060>062-070>072-077>081-222100-
  SOUTHWEST OHIO

CITY           SKY/WX    TMP DP  RH WIND       PRES   REMARKS
CINC-COVINGTON CLOUDY    51  36  56 E10       29.82F
CINC-LUNKEN    CLOUDY    51  38  60 E5        29.86F
HAMILTON       CLOUDY    51  39  63 SE6       29.86F
DAYTON         CLOUDY    47  37  68 E9        29.85F
WRIGHT-PAT AFB CLOUDY    46  37  70 E9        29.86F
DAYTON GENERAL CLOUDY    47  37  68 E7        29.86F
WILMINGTON     CLOUDY    46  36  68 SE7       29.88F
$$

OHZ036-037-039>041-045>050-054>059-063>069-073>076-082>088-222100-
  CENTRAL AND SOUTHEAST OHIO

CITY           SKY/WX    TMP DP  RH WIND       PRES   REMARKS
COLUMBUS       PTSUNNY   46  34  62 E8        29.91F
OSU AIRPORT    MOSUNNY   47  34  60 SE7       29.90F
BOLTON FIELD   CLOUDY    46  36  66 E7        29.91F
RICKENBACK AFB SUNNY     47  36  63 E6        29.91F
NEWARK         MOSUNNY   48  34  58 E6        29.93F
MARION         PTSUNNY   45  34  65 SE8       29.91F
LANCASTER      SUNNY     58  36  43 E6        29.93F
ZANESVILLE     MOSUNNY   50  34  54 E8        29.94F
NEW PHILLY     CLOUDY    48  33  56 E3        29.97F
$$


USA.gov is the U.S. government's official web portal to all federal, state and local government web resources and services.